SCP
0 0 0 0 0 0 0 0 0 0 0 0 0 0 0 0 0 0 0 0 0 0 0 0 0 0 0 0 0 0 0 0 0 0 0 0 0 0 0 0 0 0 0 0 0 0 0
0 0 0 0 0 0 0 0 0 0 0 0 0 0 0 0 0 0 0 -0 0 0 -0 -0 0 0 0 0 0 0 0 0 0 0 0 0 0 0 0 0 0 0 0 0 0 0 0
0 0 0 0 0 0 0 0 0 0 0 0 0 0 0 0 0 0 0 0 -0 -0 -0 -0 -0 0 0 0 0 0 0 0 0 0 0 0 0 0 0 0 0 0 0 0 0 0 0
0 0 0 0 0 0 0 0 0 0 0 0 0 0 0 0 0 0 0 0 0 -0 -0 0 -0 -0 0 0 -0 -0 0 0 0 0 0 0 0 0 0 0 0 0 0 0 0 0 0
0 0 0 0 0 0 0 0 0 0 0 0 0 0 0 0 0 0 0 0 -0 0 0 -0 0 0 0 -0 -0 0 -0 0 0 0 0 0 0 0 0 0 0 0 0 0 0 0 0
0 0 0 0 0 0 0 0 0 0 0 0 0 0 0 0 0 0 0 -0 -0 0 0 0 0 0 0 0 0 0 0 -0 0 0 0 0 0 0 0 0 0 0 0 0 0 0 0
0 0 0 0 0 0 0 0 0 0 0 0 0 0 0 0 0 0 0 0 0 0 0 0 0 0 0 -0 0 0 0 -0 0 0 0 0 0 0 0 0 0 0 0 0 0 0 0
0 0 0 0 0 0 0 0 0 0 0 0 0 0 0 0 0 0 0 0 0 0 0 0 0 -0 0 0 -0 0 0 0 0 0 0 0 0 0 0 0 0 0 0 0 0 0 0
0 0 0 0 0 0 0 0 0 0 0 0 0 0 0 0 0 0 0 0 0 0 0 0 0 0 0 -0 0 0 0 0 0 0 -0 0 0 0 0 0 0 0 0 0 0 0 0
0 0 0 0 0 0 0 0 0 0 0 0 0 0 0 0 -0 0 0 0 0 0 0 0 0 0 0 0 0 -0 0 0 0 0 0 0 0 0 0 0 0 0 0 0 0 0 0
0 0 0 0 0 0 0 0 0 0 0 0 0 0 0 0 0 0 0 0 0 0 0 0 0 0 0 0 -0 -0 0 0 -0 -0 0 0 0 0 0 0 0 0 0 0 0 0 0
0 0 0 0 0 0 0 0 0 0 0 0 0 0 0 0 0 0 0 0 0 0 0 0 0 -0 -0 -0 -0 0 0 -0 0 0 0 0 0 0 0 0 0 0 0 0 0 0 0
0 0 0 0 0 0 0 0 0 0 0 0 0 0 0 0 0 0 0 0 0 0 0 0 0 0 -0 0 0 -0 -0 -0 0 0 -0 0 0 0 0 0 0 0 0 0 0 0 0
0 0 0 0 0 0 0 0 0 0 0 0 0 0 0 0 0 0 0 0 0 0 0 0 0 -0 0 -0 0 -0 -0 0 0 -0 -0 0 0 0 0 0 0 0 0 0 0 0 0
0 0 0 0 0 0 0 0 0 0 0 0 0 0 0 0 0 0 0 0 0 0 0 0 0 0 0 0 -0 0 0 -0 -0 0 0 0 0 0 0 0 0 0 0 0 0 0 0
0 0 0 0 0 0 0 0 0 0 0 0 0 0 0 0 0 0 0 0 0 0 0 0 0 0 -0 -0 -0 0 0 0 -0 -0 0 -0 0 -0 0 0 0 0 0 0 0 0 0
0 0 0 0 0 0 0 0 0 0 0 0 0 0 0 0 0 0 0 0 0 0 0 0 0 0 0 0 0 0 0 0 -0 0 -0 -0 -0 0 0 0 0 0 0 0 0 0 0
0 0 0 0 0 0 0 0 0 0 0 0 0 0 0 0 0 0 -0 -0 0 0 0 0 0 0 0 0 0 0 0 0 -0 -0 -0 -0 -0 -0 -0 0 0 0 0 0 0 0 0
0 0 0 0 0 0 0 0 0 0 0 0 0 0 0 0 0 0 -0 -0 0 0 -0 0 -0 -0 0 0 0 0 0 0 0 0 -0 -0 -0 -0 0 0 0 0 0 0 0 0 0
0 0 0 0 0 0 0 0 0 0 0 0 0 0 0 0 0 -0 -0 -0 -0 0 -0 0 -0 -0 0 0 0 0 0 0 -0 -0 0 0 -0 -0 -0 -0 -0 0 0 0 0 0 0
0 0 0 0 0 0 0 0 0 0 0 -0 0 0 0 0 0 -0 -0 -0 -0 -0 0 -0 -0 0 -0 0 0 0 0 0 0 0 0 0 0 0 0 0 -0 -0 0 0 0 0 0
0 0 0 0 0 0 0 0 0 0 -0 0 0 0 0 0 0 -0 -0 -0 0 -0 0 0 0 -0 -0 0 0 -0 -0 0 0 0 0 0 0 -0 -0 -0 -0 -0 0 0 0 0 0
0 0 0 0 0 0 0 0 0 0 0 0 0 0 0 0 0 -0 -0 -0 0 0 0 0 0 -0 -0 -0 -0 -0 -0 -0 0 0 0 0 0 0 0 -0 0 0 0 0 0 0 0
0 0 0 0 0 0 0 0 0 0 0 0 0 0 0 0 0 0 -0 -0 0 0 0 0 0 -0 -0 -0 -0 -0 -0 -0 0 0 0 0 0 0 0 0 0 0 0 0 0 0 0
0 0 0 0 0 0 0 0 0 0 0 0 0 0 0 0 0 0 0 -0 0 0 0 0 -0 -0 -0 -0 0 -0 -0 0 0 0 0 0 0 0 0 0 0 0 0 0 0 0 0
0 0 0 0 0 0 0 0 0 0 0 0 0 0 0 0 0 -0 0 -0 0 0 0 0 -0 -0 -0 0 0 0 0 0 0 0 0 0 0 0 0 0 0 0 0 1 0 0 0
0 0 0 0 0 0 0 0 0 0 0 0 0 0 0 0 0 0 -0 0 0 0 0 0 -0 -0 -0 -0 0 0 0 0 0 0 0 0 0 0 0 0 0 0 0 0 0 0 0
0 0 0 0 0 0 0 0 0 0 0 0 0 0 0 0 0 0 0 0 0 0 0 -0 0 0 0 -0 -0 -0 0 0 0 0 0 0 0 0 0 0 0 0 0 0 0 0 0
0 0 0 0 0 0 0 0 0 0 0 0 0 0 0 0 0 0 -0 -0 -0 0 0 0 0 0 -0 0 0 0 0 0 0 0 0 0 0 0 0 0 0 0 0 0 0 0 0
Wind_Speed_500mb
49 49 50 51 51 50 48 47 47 48 49 50 51 52 54 56 58 58 58 59 63 65 64 64 60 45 27 32 49 27 28 21 8 24 38 48 55 59 45 42 43 54 35 36 45 35 36
51 51 52 52 51 49 48 49 49 49 50 51 51 52 53 55 56 57 58 58 57 56 61 61 61 37 35 53 47 39 44 42 33 31 34 44 42 60 33 47 43 25 53 42 39 49 40
51 53 55 53 52 52 52 52 52 53 54 55 57 60 64 67 71 72 71 70 58 62 57 54 51 42 56 77 45 30 29 28 40 53 47 46 45 48 38 24 49 44 26 37 45 39 28
55 58 57 55 55 55 55 55 56 57 58 60 61 63 68 71 73 71 66 56 63 59 59 41 39 36 52 36 48 72 67 49 25 27 55 52 47 45 46 26 14 42 39 39 39 46 49
59 60 58 58 58 57 56 57 56 58 60 60 63 67 69 74 72 64 54 63 64 53 42 34 13 18 32 21 33 41 51 70 69 48 24 22 43 56 49 37 31 35 39 50 36 36 30
62 60 58 58 59 59 59 58 58 61 60 61 67 69 70 73 63 49 59 70 48 40 13 16 3 12 31 32 8 20 15 38 43 50 56 40 32 31 39 40 54 49 45 37 48 38 43
63 60 60 60 60 60 59 58 59 61 62 65 68 68 67 69 52 43 68 55 49 23 41 37 48 60 68 69 73 45 10 27 32 33 51 49 38 54 66 59 48 36 41 47 28 29 47
63 62 62 62 61 59 58 60 62 62 65 68 69 67 67 65 45 38 42 28 24 27 33 48 38 28 31 32 37 46 26 26 26 31 43 27 60 64 54 51 51 51 31 36 29 24 38
63 63 62 61 61 59 59 61 62 64 69 74 75 74 68 59 36 30 29 24 26 23 13 32 13 12 7 6 11 16 44 44 31 38 49 46 38 56 49 51 50 51 39 32 39 30 32
64 64 64 63 60 59 58 61 63 67 72 76 78 77 61 41 19 36 23 34 21 20 8 5 6 9 6 14 8 18 15 49 50 48 44 51 41 32 61 57 52 51 44 27 34 37 25
63 64 65 62 59 58 58 61 64 70 75 80 81 67 34 35 43 27 33 31 19 5 10 24 7 3 30 37 41 25 26 10 52 53 33 45 46 48 50 56 54 44 43 30 28 29 13
62 64 65 62 60 59 59 62 66 73 77 82 84 50 29 31 26 32 37 26 5 8 9 29 23 47 44 46 17 28 15 31 10 45 54 48 36 34 41 50 52 42 49 37 28 21 21
61 62 63 63 60 59 60 63 69 76 80 84 83 35 30 50 34 40 30 9 10 10 41 22 46 51 40 25 20 18 16 17 11 15 42 48 52 35 33 44 43 52 50 28 27 22 26
61 63 63 63 61 59 61 64 68 76 81 84 71 18 34 44 46 37 18 10 10 30 31 40 36 50 13 26 20 14 16 10 19 24 25 42 45 49 37 43 39 64 62 39 63 40 33
60 61 61 62 62 60 61 63 68 76 82 84 56 3 24 46 34 26 18 9 13 21 27 25 40 27 24 31 25 15 11 8 6 28 17 36 36 46 37 36 47 64 53 48 33 34 31
59 60 60 61 62 61 62 64 67 74 81 82 42 7 24 53 21 18 10 7 13 13 27 16 10 15 37 33 27 28 14 6 2 28 12 11 22 54 42 48 50 46 56 40 22 45 36
58 59 58 60 61 62 62 64 67 71 80 77 23 9 27 43 19 17 9 14 26 50 42 9 13 12 23 17 23 15 9 6 4 10 10 18 22 36 49 29 51 39 41 36 25 24 21
55 56 55 58 59 61 64 65 65 67 77 69 24 6 35 47 19 13 15 27 34 38 55 12 11 10 9 22 12 14 14 8 28 18 17 12 10 40 59 34 50 43 58 47 27 29 21
53 53 53 55 57 59 62 63 64 61 60 54 31 11 24 38 12 19 24 20 27 41 36 13 9 5 8 10 10 23 19 19 30 10 10 7 11 36 12 14 42 49 51 42 29 20 19
51 52 51 52 55 57 58 60 62 60 52 30 21 11 14 18 8 28 29 22 32 45 28 25 23 19 23 17 10 13 30 10 45 16 18 8 20 30 20 36 46 56 59 46 28 26 32
50 51 48 48 50 54 53 55 57 58 47 32 24 11 10 16 19 29 30 24 40 28 16 23 8 25 38 12 16 12 19 26 24 21 14 7 21 11 18 36 48 56 57 53 33 25 29
49 48 48 46 49 52 50 50 50 52 46 18 15 15 18 27 33 31 22 24 34 46 22 19 13 40 38 13 15 31 29 12 9 19 15 15 14 20 20 33 46 52 50 44 32 3 13
47 47 46 45 47 49 47 45 42 42 42 16 22 20 15 24 22 20 18 36 43 41 21 42 45 37 26 24 48 61 52 32 21 11 13 13 15 17 14 43 26 25 47 46 22 5 35
46 47 45 44 46 49 43 40 36 33 33 29 32 27 11 12 20 20 36 42 42 42 28 47 51 32 35 68 58 37 30 23 8 13 14 12 13 11 24 24 8 20 30 33 13 17 16
45 46 45 44 44 48 39 37 34 30 29 31 31 21 10 15 34 28 37 39 47 45 28 38 55 65 50 38 11 13 3 4 4 19 12 10 11 11 10 11 36 23 40 36 22 7 35
44 45 44 44 46 43 37 35 33 29 26 26 23 27 20 18 8 35 39 33 25 24 16 32 53 44 39 6 6 10 9 10 10 20 22 17 7 11 21 17 7 22 22 17 10 7 23
43 44 43 42 43 39 36 36 33 27 24 30 22 28 19 15 26 41 22 20 23 16 10 21 57 20 33 14 9 8 6 14 8 9 12 11 10 19 16 9 12 22 31 15 20 18 38
41 41 41 41 43 39 34 34 33 27 23 25 29 27 24 17 56 24 26 44 46 34 10 36 23 5 7 15 9 9 7 10 8 11 9 10 10 9 6 10 10 47 18 4 12 54 60
42 41 39 39 39 36 33 33 30 28 25 21 26 27 35 37 54 54 35 29 31 39 46 12 13 18 8 6 6 6 5 7 9 5 16 8 9 5 12 7 10 23 20 27 40 57 57
Wind_Direction_500mb
13 10 7 4 2 360 360 357 356 354 352 349 347 343 340 336 332 328 325 323 320 316 313 308 304 296 291 250 242 270 252 242 221 188 197 195 200 201 214 213 221 220 240 228 233 235 229
10 7 4 1 0 0 358 356 354 351 350 349 347 342 338 333 330 328 325 323 323 316 306 298 290 280 252 250 256 258 249 244 238 218 209 200 209 207 226 236 221 215 232 235 232 232 231
9 6 3 2 2 0 359 356 354 353 353 351 347 346 341 340 338 337 334 333 337 327 324 310 284 261 245 241 257 270 247 245 236 226 217 209 209 202 218 242 231 248 243 230 229 220 225
7 5 4 3 1 359 357 357 355 353 355 350 349 345 341 339 337 335 333 337 335 326 326 320 297 254 252 267 258 257 246 240 237 214 220 224 219 227 229 223 226 215 223 232 215 220 221
6 4 3 2 359 357 355 356 355 354 354 351 348 343 340 337 338 336 339 336 332 324 324 341 298 221 264 283 252 268 247 239 232 222 210 205 210 216 217 220 219 199 217 221 214 200 203
4 3 1 360 357 355 355 355 356 355 355 351 346 342 338 337 339 339 338 338 339 319 337 329 211 223 256 263 340 306 279 224 216 223 222 224 208 199 216 202 214 206 216 221 214 179 215
3 2 360 358 357 355 354 354 355 355 355 349 344 339 335 337 339 337 339 346 348 323 309 289 274 272 279 271 285 281 267 176 196 202 198 202 210 210 204 210 224 216 210 224 205 185 212
2 1 359 358 357 355 354 353 355 354 352 347 343 339 333 335 333 331 353 354 339 304 304 307 270 276 286 276 270 261 257 186 201 197 197 173 219 217 216 210 217 230 228 209 187 182 207
1 360 358 358 358 356 353 352 353 353 351 347 345 341 333 335 333 345 339 340 327 324 281 295 268 255 331 185 246 276 222 225 212 220 193 203 225 229 222 218 210 218 220 200 202 190 216
359 358 357 358 357 356 353 352 352 352 349 347 346 343 338 344 354 327 339 333 323 321 292 273 213 229 236 286 252 225 199 237 237 236 207 225 222 210 212 215 202 206 204 192 202 182 195
357 357 358 356 355 353 353 352 351 350 350 347 349 344 357 352 332 332 324 326 307 329 304 7 19 321 299 283 275 223 214 222 222 219 235 217 217 216 205 212 197 215 187 196 174 199 184
356 355 356 355 353 354 354 351 350 348 350 348 349 345 355 351 332 326 321 319 293 228 331 334 325 329 316 321 329 119 147 187 237 245 222 230 207 221 213 204 204 201 183 197 196 204 213
354 354 354 354 353 353 353 351 350 348 349 349 349 341 357 348 330 326 327 309 279 347 336 343 322 331 318 303 326 192 218 198 172 162 212 215 228 204 206 187 193 206 164 176 188 192 218
353 354 353 353 352 352 352 351 350 347 349 351 350 354 355 350 331 333 338 256 308 353 343 322 322 312 296 348 333 314 289 262 185 207 192 200 206 213 187 200 182 197 181 180 180 192 184
351 353 352 352 351 351 350 349 350 348 350 351 351 81 8 345 338 343 313 351 340 339 329 312 313 316 344 360 337 308 263 288 234 206 175 201 211 190 194 187 184 187 201 200 193 191 161
350 352 352 352 350 352 350 349 352 348 350 352 352 334 352 349 350 354 356 339 331 329 311 287 297 328 323 342 331 330 301 75 272 209 272 202 202 186 179 190 191 194 198 207 225 178 172
349 351 350 350 350 351 351 352 353 350 349 354 355 303 344 358 358 356 29 334 316 329 347 294 287 292 312 326 311 298 312 9 138 261 170 264 191 178 190 193 190 196 196 206 216 189 177
348 348 349 350 350 352 353 353 356 357 352 1 358 319 348 4 30 19 355 323 297 327 341 316 288 266 285 316 285 297 334 354 297 271 158 231 182 172 192 175 198 206 201 203 204 185 202
346 347 348 350 350 351 353 355 357 3 2 350 343 323 344 16 32 356 332 312 340 335 338 328 289 255 292 293 303 312 335 306 325 307 163 208 206 158 177 215 202 182 206 192 201 197 186
345 346 346 349 350 351 353 357 357 7 7 12 346 338 350 359 63 351 332 337 340 344 324 323 291 287 328 304 251 296 329 311 317 274 253 233 188 161 205 185 178 188 190 193 184 191 181
343 344 345 347 348 350 354 356 356 5 18 18 13 13 358 321 334 336 331 329 339 347 319 325 278 323 327 295 305 333 322 320 313 356 350 252 164 107 290 149 168 189 189 190 190 206 187
342 341 344 345 347 350 354 356 360 4 24 22 19 350 319 289 303 332 344 343 329 330 321 311 293 314 313 294 290 309 313 313 305 329 335 317 140 141 153 140 177 174 179 190 193 175 163
341 341 343 343 345 348 350 354 3 6 16 10 354 334 297 301 319 334 347 329 326 325 307 319 320 314 308 307 306 297 290 276 266 303 329 318 149 171 131 136 147 180 176 181 149 254 150
339 340 341 340 343 344 346 349 358 5 6 355 348 340 299 305 333 321 309 327 325 318 309 310 328 337 309 312 308 275 254 257 290 325 234 278 156 77 132 131 140 139 193 178 173 97 95
337 339 338 339 343 341 344 345 353 358 356 344 343 338 313 297 317 309 332 325 324 323 323 313 333 328 324 319 320 301 143 178 8 256 25 20 105 107 135 134 110 114 156 175 154 83 122
334 336 337 339 341 343 344 342 347 351 349 341 327 337 310 302 290 329 318 325 321 327 318 318 333 336 345 325 325 341 6 338 347 352 20 43 212 128 145 114 125 95 49 12 122 108 158
332 334 336 337 340 343 341 342 345 347 349 344 320 327 310 276 289 315 310 315 306 313 282 298 340 332 6 345 351 359 353 346 8 10 344 11 65 93 87 97 70 360 330 306 195 142 137
328 332 332 334 341 340 340 342 339 341 345 340 321 307 308 270 296 279 301 296 296 299 303 310 321 25 305 6 359 357 333 5 345 18 2 47 348 27 340 105 100 347 318 279 91 132 137
329 328 329 333 339 338 336 336 337 338 335 332 323 314 313 288 279 297 297 295 277 282 283 286 271 289 315 337 1 311 328 344 344 36 11 55 21 60 26 57 12 2 46 97 126 126 127
Wind_Speed_850mb
49 49 50 51 51 50 48 47 47 48 49 50 51 52 54 56 58 58 58 59 63 65 64 64 60 45 27 32 49 27 28 21 8 24 38 48 55 59 45 42 43 54 35 36 45 35 36
51 51 52 52 51 49 48 49 49 49 50 51 51 52 53 55 56 57 58 58 57 56 61 61 61 37 35 53 47 39 44 42 33 31 34 44 42 60 33 47 43 25 53 42 39 49 40
51 53 55 53 52 52 52 52 52 53 54 55 57 60 64 67 71 72 71 70 58 62 57 54 51 42 56 77 45 30 29 28 40 53 47 46 45 48 38 24 49 44 26 37 45 39 28
55 58 57 55 55 55 55 55 56 57 58 60 61 63 68 71 73 71 66 56 63 59 59 41 39 36 52 36 48 72 67 49 25 27 55 52 47 45 46 26 14 42 39 39 39 46 49
59 60 58 58 58 57 56 57 56 58 60 60 63 67 69 74 72 64 54 63 64 53 42 34 13 18 32 21 33 41 51 70 69 48 24 22 43 56 49 37 31 35 39 50 36 36 30
62 60 58 58 59 59 59 58 58 61 60 61 67 69 70 73 63 49 59 70 48 40 13 16 3 12 31 32 8 20 15 38 43 50 56 40 32 31 39 40 54 49 45 37 48 38 43
63 60 60 60 60 60 59 58 59 61 62 65 68 68 67 69 52 43 68 55 49 23 41 37 48 60 68 69 73 45 10 27 32 33 51 49 38 54 66 59 48 36 41 47 28 29 47
63 62 62 62 61 59 58 60 62 62 65 68 69 67 67 65 45 38 42 28 24 27 33 48 38 28 31 32 37 46 26 26 26 31 43 27 60 64 54 51 51 51 31 36 29 24 38
63 63 62 61 61 59 59 61 62 64 69 74 75 74 68 59 36 30 29 24 26 23 13 32 13 12 7 6 11 16 44 44 31 38 49 46 38 56 49 51 50 51 39 32 39 30 32
64 64 64 63 60 59 58 61 63 67 72 76 78 77 61 41 19 36 23 34 21 20 8 5 6 9 6 14 8 18 15 49 50 48 44 51 41 32 61 57 52 51 44 27 34 37 25
63 64 65 62 59 58 58 61 64 70 75 80 81 67 34 35 43 27 33 31 19 5 10 24 7 3 30 37 41 25 26 10 52 53 33 45 46 48 50 56 54 44 43 30 28 29 13
62 64 65 62 60 59 59 62 66 73 77 82 84 50 29 31 26 32 37 26 5 8 9 29 23 47 44 46 17 28 15 31 10 45 54 48 36 34 41 50 52 42 49 37 28 21 21
61 62 63 63 60 59 60 63 69 76 80 84 83 35 30 50 34 40 30 9 10 10 41 22 46 51 40 25 20 18 16 17 11 15 42 48 52 35 33 44 43 52 50 28 27 22 26
61 63 63 63 61 59 61 64 68 76 81 84 71 18 34 44 46 37 18 10 10 30 31 40 36 50 13 26 20 14 16 10 19 24 25 42 45 49 37 43 39 64 62 39 63 40 33
60 61 61 62 62 60 61 63 68 76 82 84 56 3 24 46 34 26 18 9 13 21 27 25 40 27 24 31 25 15 11 8 6 28 17 36 36 46 37 36 47 64 53 48 33 34 31
59 60 60 61 62 61 62 64 67 74 81 82 42 7 24 53 21 18 10 7 13 13 27 16 10 15 37 33 27 28 14 6 2 28 12 11 22 54 42 48 50 46 56 40 22 45 36
58 59 58 60 61 62 62 64 67 71 80 77 23 9 27 43 19 17 9 14 26 50 42 9 13 12 23 17 23 15 9 6 4 10 10 18 22 36 49 29 51 39 41 36 25 24 21
55 56 55 58 59 61 64 65 65 67 77 69 24 6 35 47 19 13 15 27 34 38 55 12 11 10 9 22 12 14 14 8 28 18 17 12 10 40 59 34 50 43 58 47 27 29 21
53 53 53 55 57 59 62 63 64 61 60 54 31 11 24 38 12 19 24 20 27 41 36 13 9 5 8 10 10 23 19 19 30 10 10 7 11 36 12 14 42 49 51 42 29 20 19
51 52 51 52 55 57 58 60 62 60 52 30 21 11 14 18 8 28 29 22 32 45 28 25 23 19 23 17 10 13 30 10 45 16 18 8 20 30 20 36 46 56 59 46 28 26 32
50 51 48 48 50 54 53 55 57 58 47 32 24 11 10 16 19 29 30 24 40 28 16 23 8 25 38 12 16 12 19 26 24 21 14 7 21 11 18 36 48 56 57 53 33 25 29
49 48 48 46 49 52 50 50 50 52 46 18 15 15 18 27 33 31 22 24 34 46 22 19 13 40 38 13 15 31 29 12 9 19 15 15 14 20 20 33 46 52 50 44 32 3 13
47 47 46 45 47 49 47 45 42 42 42 16 22 20 15 24 22 20 18 36 43 41 21 42 45 37 26 24 48 61 52 32 21 11 13 13 15 17 14 43 26 25 47 46 22 5 35
46 47 45 44 46 49 43 40 36 33 33 29 32 27 11 12 20 20 36 42 42 42 28 47 51 32 35 68 58 37 30 23 8 13 14 12 13 11 24 24 8 20 30 33 13 17 16
45 46 45 44 44 48 39 37 34 30 29 31 31 21 10 15 34 28 37 39 47 45 28 38 55 65 50 38 11 13 3 4 4 19 12 10 11 11 10 11 36 23 40 36 22 7 35
44 45 44 44 46 43 37 35 33 29 26 26 23 27 20 18 8 35 39 33 25 24 16 32 53 44 39 6 6 10 9 10 10 20 22 17 7 11 21 17 7 22 22 17 10 7 23
43 44 43 42 43 39 36 36 33 27 24 30 22 28 19 15 26 41 22 20 23 16 10 21 57 20 33 14 9 8 6 14 8 9 12 11 10 19 16 9 12 22 31 15 20 18 38
41 41 41 41 43 39 34 34 33 27 23 25 29 27 24 17 56 24 26 44 46 34 10 36 23 5 7 15 9 9 7 10 8 11 9 10 10 9 6 10 10 47 18 4 12 54 60
42 41 39 39 39 36 33 33 30 28 25 21 26 27 35 37 54 54 35 29 31 39 46 12 13 18 8 6 6 6 5 7 9 5 16 8 9 5 12 7 10 23 20 27 40 57 57
Wind_Direction_850mb
13 10 7 4 2 360 360 357 356 354 352 349 347 343 340 336 332 328 325 323 320 316 313 308 304 296 291 250 242 270 252 242 221 188 197 195 200 201 214 213 221 220 240 228 233 235 229
10 7 4 1 0 0 358 356 354 351 350 349 347 342 338 333 330 328 325 323 323 316 306 298 290 280 252 250 256 258 249 244 238 218 209 200 209 207 226 236 221 215 232 235 232 232 231
9 6 3 2 2 0 359 356 354 353 353 351 347 346 341 340 338 337 334 333 337 327 324 310 284 261 245 241 257 270 247 245 236 226 217 209 209 202 218 242 231 248 243 230 229 220 225
7 5 4 3 1 359 357 357 355 353 355 350 349 345 341 339 337 335 333 337 335 326 326 320 297 254 252 267 258 257 246 240 237 214 220 224 219 227 229 223 226 215 223 232 215 220 221
6 4 3 2 359 357 355 356 355 354 354 351 348 343 340 337 338 336 339 336 332 324 324 341 298 221 264 283 252 268 247 239 232 222 210 205 210 216 217 220 219 199 217 221 214 200 203
4 3 1 360 357 355 355 355 356 355 355 351 346 342 338 337 339 339 338 338 339 319 337 329 211 223 256 263 340 306 279 224 216 223 222 224 208 199 216 202 214 206 216 221 214 179 215
3 2 360 358 357 355 354 354 355 355 355 349 344 339 335 337 339 337 339 346 348 323 309 289 274 272 279 271 285 281 267 176 196 202 198 202 210 210 204 210 224 216 210 224 205 185 212
2 1 359 358 357 355 354 353 355 354 352 347 343 339 333 335 333 331 353 354 339 304 304 307 270 276 286 276 270 261 257 186 201 197 197 173 219 217 216 210 217 230 228 209 187 182 207
1 360 358 358 358 356 353 352 353 353 351 347 345 341 333 335 333 345 339 340 327 324 281 295 268 255 331 185 246 276 222 225 212 220 193 203 225 229 222 218 210 218 220 200 202 190 216
359 358 357 358 357 356 353 352 352 352 349 347 346 343 338 344 354 327 339 333 323 321 292 273 213 229 236 286 252 225 199 237 237 236 207 225 222 210 212 215 202 206 204 192 202 182 195
357 357 358 356 355 353 353 352 351 350 350 347 349 344 357 352 332 332 324 326 307 329 304 7 19 321 299 283 275 223 214 222 222 219 235 217 217 216 205 212 197 215 187 196 174 199 184
356 355 356 355 353 354 354 351 350 348 350 348 349 345 355 351 332 326 321 319 293 228 331 334 325 329 316 321 329 119 147 187 237 245 222 230 207 221 213 204 204 201 183 197 196 204 213
354 354 354 354 353 353 353 351 350 348 349 349 349 341 357 348 330 326 327 309 279 347 336 343 322 331 318 303 326 192 218 198 172 162 212 215 228 204 206 187 193 206 164 176 188 192 218
353 354 353 353 352 352 352 351 350 347 349 351 350 354 355 350 331 333 338 256 308 353 343 322 322 312 296 348 333 314 289 262 185 207 192 200 206 213 187 200 182 197 181 180 180 192 184
351 353 352 352 351 351 350 349 350 348 350 351 351 81 8 345 338 343 313 351 340 339 329 312 313 316 344 360 337 308 263 288 234 206 175 201 211 190 194 187 184 187 201 200 193 191 161
350 352 352 352 350 352 350 349 352 348 350 352 352 334 352 349 350 354 356 339 331 329 311 287 297 328 323 342 331 330 301 75 272 209 272 202 202 186 179 190 191 194 198 207 225 178 172
349 351 350 350 350 351 351 352 353 350 349 354 355 303 344 358 358 356 29 334 316 329 347 294 287 292 312 326 311 298 312 9 138 261 170 264 191 178 190 193 190 196 196 206 216 189 177
348 348 349 350 350 352 353 353 356 357 352 1 358 319 348 4 30 19 355 323 297 327 341 316 288 266 285 316 285 297 334 354 297 271 158 231 182 172 192 175 198 206 201 203 204 185 202
346 347 348 350 350 351 353 355 357 3 2 350 343 323 344 16 32 356 332 312 340 335 338 328 289 255 292 293 303 312 335 306 325 307 163 208 206 158 177 215 202 182 206 192 201 197 186
345 346 346 349 350 351 353 357 357 7 7 12 346 338 350 359 63 351 332 337 340 344 324 323 291 287 328 304 251 296 329 311 317 274 253 233 188 161 205 185 178 188 190 193 184 191 181
343 344 345 347 348 350 354 356 356 5 18 18 13 13 358 321 334 336 331 329 339 347 319 325 278 323 327 295 305 333 322 320 313 356 350 252 164 107 290 149 168 189 189 190 190 206 187
342 341 344 345 347 350 354 356 360 4 24 22 19 350 319 289 303 332 344 343 329 330 321 311 293 314 313 294 290 309 313 313 305 329 335 317 140 141 153 140 177 174 179 190 193 175 163
341 341 343 343 345 348 350 354 3 6 16 10 354 334 297 301 319 334 347 329 326 325 307 319 320 314 308 307 306 297 290 276 266 303 329 318 149 171 131 136 147 180 176 181 149 254 150
339 340 341 340 343 344 346 349 358 5 6 355 348 340 299 305 333 321 309 327 325 318 309 310 328 337 309 312 308 275 254 257 290 325 234 278 156 77 132 131 140 139 193 178 173 97 95
337 339 338 339 343 341 344 345 353 358 356 344 343 338 313 297 317 309 332 325 324 323 323 313 333 328 324 319 320 301 143 178 8 256 25 20 105 107 135 134 110 114 156 175 154 83 122
334 336 337 339 341 343 344 342 347 351 349 341 327 337 310 302 290 329 318 325 321 327 318 318 333 336 345 325 325 341 6 338 347 352 20 43 212 128 145 114 125 95 49 12 122 108 158
332 334 336 337 340 343 341 342 345 347 349 344 320 327 310 276 289 315 310 315 306 313 282 298 340 332 6 345 351 359 353 346 8 10 344 11 65 93 87 97 70 360 330 306 195 142 137
328 332 332 334 341 340 340 342 339 341 345 340 321 307 308 270 296 279 301 296 296 299 303 310 321 25 305 6 359 357 333 5 345 18 2 47 348 27 340 105 100 347 318 279 91 132 137
329 328 329 333 339 338 336 336 337 338 335 332 323 314 313 288 279 297 297 295 277 282 283 286 271 289 315 337 1 311 328 344 344 36 11 55 21 60 26 57 12 2 46 97 126 126 127